Location: Ergnies
(50.0854°N, 2.0375°E)
Time: 10:33:06
(UTC+00:00)

RUBIN 8/PSLV - Pass Details

Date: 14 January 2026
Orbit: 593 x 628 km, 98.1° (Epoch: 10 February)

Event Time Altitude Azimuth Distance (km) Brightness Sun altitude
Rises 05:51:42 0° 12° (NNE) 2,846 8.0 -17.6°
Reaches altitude 10° 05:53:53 10° 10° (N) 1,938 7.1 -17.3°
Maximum altitude 05:58:03 68° 288° (WNW) 643 4.4 -16.6°
Drops below altitude 10° 06:02:12 10° 205° (SSW) 1,927 7.0 -16.0°
Sets 06:04:22 0° 203° (SSW) 2,827 7.9 -15.6°
